TimeMDT,TemperatureF,Dew PointF,Humidity,Sea Level PressureIn,VisibilityMPH,Wind Direction,Wind SpeedMPH,Gust SpeedMPH,PrecipitationIn,Events,Conditions,WindDirDegrees,DateUTC
12:53 AM,43.0,42.1,97,29.65,10.0,Calm,Calm,-,N/A,,Overcast,0,2012-10-20 06:53:00
1:53 AM,46.0,39.9,79,29.64,10.0,SSE,5.8,-,0.00,Rain,Light Rain,150,2012-10-20 07:53:00
2:53 AM,46.9,37.0,68,29.62,10.0,WSW,16.1,24.2,0.00,,Overcast,250,2012-10-20 08:53:00
3:53 AM,46.9,35.1,63,29.61,10.0,West,13.8,20.7,0.00,,Overcast,260,2012-10-20 09:53:00
4:53 AM,45.0,35.1,68,29.60,10.0,WSW,10.4,16.1,0.01,,Mostly Cloudy,250,2012-10-20 10:53:00
5:53 AM,45.0,34.0,65,29.62,10.0,SW,15.0,21.9,N/A,,Partly Cloudy,230,2012-10-20 11:53:00
6:53 AM,44.1,33.1,65,29.62,10.0,WSW,10.4,17.3,N/A,,Clear,240,2012-10-20 12:53:00
7:53 AM,44.1,32.0,63,29.61,10.0,West,12.7,21.9,N/A,,Clear,260,2012-10-20 13:53:00
8:53 AM,44.1,32.0,63,29.62,10.0,West,6.9,-,N/A,,Partly Cloudy,260,2012-10-20 14:53:00
9:53 AM,44.1,33.1,65,29.63,10.0,NNW,8.1,-,N/A,,Overcast,330,2012-10-20 15:53:00
10:53 AM,44.1,33.1,65,29.65,10.0,WSW,11.5,19.6,0.01,,Overcast,240,2012-10-20 16:53:00
11:53 AM,48.2,30.2,50,29.68,10.0,WNW,15.0,27.6,N/A,,Mostly Cloudy,290,2012-10-20 17:53:00
12:53 PM,48.0,28.0,46,29.62,10.0,West,12.7,26.5,N/A,,Overcast,280,2012-10-20 18:53:00
1:53 PM,48.0,28.0,46,29.60,10.0,West,16.1,33.4,N/A,,Mostly Cloudy,260,2012-10-20 19:53:00
2:53 PM,44.1,34.0,68,29.62,10.0,WNW,11.5,-,0.02,,Scattered Clouds,300,2012-10-20 20:53:00
3:40 PM,44.6,30.2,57,29.68,10.0,WNW,15.0,-,N/A,,Mostly Cloudy,300,2012-10-20 21:40:00
3:53 PM,43.0,30.0,60,29.66,10.0,NW,19.6,24.2,N/A,,Mostly Cloudy,310,2012-10-20 21:53:00
4:53 PM,43.0,26.1,51,29.68,10.0,NW,20.7,27.6,N/A,,Overcast,310,2012-10-20 22:53:00
5:53 PM,39.0,26.1,60,29.74,10.0,NNW,16.1,24.2,N/A,,Overcast,340,2012-10-20 23:53:00
6:02 PM,37.4,26.6,65,29.77,1.8,North,17.3,24.2,0.00,Snow,Light Snow,360,2012-10-21 00:02:00
6:21 PM,35.6,26.6,70,29.78,3.0,North,13.8,19.6,0.00,Snow,Light Snow,10,2012-10-21 00:21:00
6:36 PM,35.6,28.4,75,29.78,10.0,NNE,8.1,-,0.00,,Overcast,30,2012-10-21 00:36:00
6:53 PM,36.0,27.0,70,29.78,10.0,NNE,8.1,-,0.00,,Overcast,20,2012-10-21 00:53:00
7:53 PM,36.0,23.0,59,29.80,10.0,North,3.5,-,N/A,,Overcast,350,2012-10-21 01:53:00
8:53 PM,36.0,21.9,57,29.81,10.0,NNW,3.5,-,N/A,,Overcast,340,2012-10-21 02:53:00
9:53 PM,35.1,21.0,57,29.82,10.0,NNW,4.6,-,N/A,,Overcast,330,2012-10-21 03:53:00
10:53 PM,35.1,18.0,50,29.83,10.0,NNW,4.6,-,N/A,,Overcast,340,2012-10-21 04:53:00
11:53 PM,35.1,19.0,52,29.82,10.0,NNW,5.8,-,N/A,,Overcast,330,2012-10-21 05:53:00